This demonstration page uses our WeatherBlox Daily Observations layout. Learn more.

36.19886, -115.1175

Hourly Observations for June 10, 2018

Temp ( °F °C ) Dew Point ( °F °C ) Humidity (%) Winds ( mph kmh ) Pressure ( in mb ) Visibility ( mi km ) Precip ( " mm )
12:53 am 00:53 Clear 82 27.8 33 0.6 17 17 SW 20 31 29.62 1003 10 16.09344 0 0
1:53 am 01:53 Clear 81 27.2 32 0 17 17 SW 21 33 29.65 1004 10 16.09344 0 0
2:53 am 02:53 Clear 80 26.7 28 -2.2 15 15 SW 22 35 29.62 1003 10 16.09344 0 0
3:53 am 03:53 Clear 79 26.1 27 -2.8 15 15 W 10 17 29.65 1004 10 16.09344 0 0
4:53 am 04:53 Clear 79 26.1 23 -5 12 12 NW 14 22 29.68 1005 10 16.09344 0 0
5:53 am 05:53 Sunny 78 25.6 24 -4.4 13 13 NW 17 28 29.71 1006 10 16.09344 0 0
6:53 am 06:53 Sunny 80 26.7 25 -3.9 13 13 NNW 9 15 29.74 1007 10 16.09344 0 0
7:53 am 07:53 Sunny 82 27.8 18 -7.8 9 9 N 16 26 29.74 1007 10 16.09344 0 0
8:53 am 08:53 Sunny 84 28.9 15 -9.4 7 7 N 20 31 29.77 1008 10 16.09344 0 0
9:53 am 09:53 Sunny 86 30 14 -10 7 7 NNW 12 19 29.8 1009 10 16.09344 0 0
10:53 am 10:53 Sunny 87 30.6 16 -8.9 7 7 N 3 6 29.8 1009 10 16.09344 0 0
11:53 am 11:53 Sunny 89 31.7 15 -9.4 6 6 Calm 29.8 1009 10 16.09344 0 0
12:53 pm 12:53 Sunny 90 32.2 16 -8.9 6 6 S 8 13 29.77 1008 10 16.09344 0 0
1:53 pm 13:53 Sunny 92 33.3 16 -8.9 6 6 E 5 7 29.74 1007 10 16.09344 0 0
2:53 pm 14:53 Sunny 93 33.9 14 -10 5 5 S 10 17 29.74 1007 10 16.09344 0 0
3:53 pm 15:53 Sunny 95 35 13 -10.6 5 5 SSW 8 13 29.71 1006 10 16.09344 0 0
4:53 pm 16:53 Sunny 95 35 12 -11.1 5 5 N 6 9 29.68 1005 10 16.09344 0 0
5:53 pm 17:53 Sunny 96 35.6 14 -10 5 5 W 8 13 29.68 1005 10 16.09344 0 0
6:53 pm 18:53 Sunny 95 35 17 -8.3 6 6 WSW 6 9 29.68 1005 10 16.09344 0 0
7:53 pm 19:53 Sunny 94 34.4 20 -6.7 7 7 SSW 3 6 29.68 1005 10 16.09344 0 0
8:53 pm 20:53 Clear 92 33.3 8 -13.3 4 4 W 5 7 29.71 1006 10 16.09344 0 0
9:53 pm 21:53 Clear 87 30.6 9 -12.8 5 5 N 7 11 29.71 1006 10 16.09344 0 0
10:53 pm 22:53 Clear 88 31.1 4 -15.6 4 4 NNW 14 22 29.71 1006 10 16.09344 0 0
11:53 pm 23:53 Clear 86 30 7 -13.9 5 5 NNW 13 20 29.71 1006 10 16.09344 0 0

Powered by AerisWeather